sat.trackr.live / text

‹ back to catalog

STARLINK-33980

NORAD 63930 · 2025-098E

PAYLOAD ACTIVE UNKNOWN

§ Identity

Operator
Country
US
Launch date
2025-05-13
Launch site
AFWTR
Launch vehicle
Mass (kg)
RCS (m²)

Purposes: comms

External: N2YO · Heavens-Above · Gunter

§ Orbital elements

Epoch: 2026-05-25T02:23:30.803712Z

Period
96.11 min
Inclination
70.0007°
Eccentricity
0.0003040
Mean motion
14.98337437 rev/d
Perigee alt
569.9 km
Apogee alt
574.1 km
Semi-major
6,950.2 km
B*
2.5923e-4
RAAN
81.9761°
Arg perigee
268.9929°
Mean anomaly
91.0881°
Rev number
5,801

§ Raw data

STARLINK-339801 63930U 25098E   26145.09966208  .00003002  00000+0  25923-3 0  99912 63930  70.0007  81.9761 0003040 268.9929  91.0881 14.98337437 58011

JSON: /api/v1/satellites/63930 · /tle

For live sub-satellite position, see the globe view (requires WebGL).

§ Visibility from observer

Set your observer location to see the next 7 days of passes ≥ 10°. The values pass through the URL so the page stays shareable.

No JS? Fill the form by hand. The geolocation button needs JavaScript.